Location: Holbach
(51.5399°N, 10.6036°E)
Time: 10:07:11
(UTC+00:00)

ATLAS CENTAUR R/B - Pass Details

Date: 23 January 2021
Orbit: 471 x 674 km, 64.6° (Epoch: 24 February)

Event Time Altitude Azimuth Distance (km) Brightness Sun altitude
Rises 05:55:48 0° 220° (SW) 2,523 4.5 -11.1°
Reaches altitude 10° 05:57:56 10° 220° (SW) 1,638 3.5 -10.8°
Maximum altitude 06:01:33 87° 138° (SE) 479 1.0 -10.2°
Drops below altitude 10° 06:05:13 10° 43° (NE) 1,652 4.1 -9.7°
Sets 06:07:22 0° 43° (NE) 2,547 5.1 -9.4°
